Home > Weather > Seattle > Past weeks

Flag for U.S.A. Weather for the Past 2 Weeks in Seattle, Washington, U.S.A.

Now
53 °F

Light rain. Overcast.


Feels Like: 53 °F
Forecast: 49 / 55 °F
Wind: No wind

Location: Seattle Boeing Field

Current Time: Feb 11, 2016 at 6:33:54 PM

Latest Report: Feb 11, 2016 at 5:53 PM


Visibility: 8 mi

Pressure: 30.12 "Hg

Humidity: 89%

Dew point: 50 °F

Location of SeattleLocation

Historic Weather in Seattle — Graph

°F

Seattle Temperature Yesterday

Maximum temperature yesterday: 56 °F (at 2:53 PM)
Minimum temperature yesterday: 44 °F (at 1:53 AM)
Average temperature yesterday: 51 °F

High & Low Weather Summary for the Past Weeks

 TemperatureHumidityPressure
High62 °F (Feb 9, 2:53 PM)100% (Jan 27, 5:53 PM)30.57 "Hg (Jan 27, 5:53 PM)
Low35 °F (Feb 2, 7:53 AM)56% (Feb 2, 3:53 PM)29.60 "Hg (Jan 29, 8:53 AM)
Average46 °F83%30.17 "Hg
* Reported Jan 27 4:53 PM — Feb 11 4:53 PM, Seattle, Weather by CustomWeather, © 2016

Note: Actual official high and low records may vary slightly from our data, if they occured in-between our weather recording intervals... More about our weather records

Advertising

Seattle Weather History for the Previous 24 Hours

 ConditionsComfort  
Time TempWeatherWind HumidityBarometerVisibility
4:53 PM
Thu, Feb 11
54 °FLight rain. Overcast.3 mph80%30.10 "Hg10 mi
3:53 PM55 °FLight rain. Overcast.No wind80%30.10 "Hg10 mi
2:53 PM55 °FLight rain. Overcast.No wind74%30.10 "Hg9 mi
12:53 PM54 °FMostly cloudy.6 mph72%30.12 "Hg10 mi
11:53 AM52 °FOvercast.5 mph80%30.14 "Hg10 mi
10:53 AM52 °FOvercast.6 mph83%30.16 "Hg10 mi
9:53 AM50 °FLight rain. Overcast.3 mph86%30.17 "Hg10 mi
8:53 AM49 °FMostly cloudy.8 mph90%30.18 "Hg10 mi
7:53 AM49 °FOvercast.No wind86%30.18 "Hg10 mi
6:53 AM49 °FOvercast.No wind86%30.18 "Hg10 mi
5:53 AM49 °FOvercast.No wind86%30.19 "Hg10 mi
4:53 AM47 °FPassing clouds.No wind93%30.22 "Hg10 mi
3:53 AM48 °FClear.3 mph93%30.22 "Hg10 mi
2:53 AM45 °FClear.No wind93%30.23 "Hg7 mi
1:53 AM44 °FFog.No wind96%30.26 "Hg6 mi
12:53 AM44 °FFog.3 mph96%30.29 "Hg3 mi
11:53 PM
Wed, Feb 10
46 °FPassing clouds.No wind93%30.30 "Hg9 mi
10:53 PM48 °FPassing clouds.No wind93%30.31 "Hg10 mi
9:53 PM50 °FPassing clouds.No wind89%30.31 "Hg10 mi
8:53 PM52 °FPassing clouds.No wind86%30.30 "Hg10 mi
7:53 PM54 °FClear.No wind80%30.29 "Hg10 mi
6:53 PM54 °FClear.8 mph80%30.27 "Hg10 mi
Weather by CustomWeather, © 2016

See weather overviewHow to use our weather pages